2016-07-22 00:00:38 r, 18.26m,0000000005Hz,0000104787c,0000000.227s, 038.0C,00002195
2016-07-22 00:10:37 r, 18.27m,0000000005Hz,0000104752c,0000000.227s, 037.7C,00002195
2016-07-22 00:20:37 r, 18.26m,0000000005Hz,0000103707c,0000000.225s, 037.3C,00002195
2016-07-22 00:30:38 r, 18.32m,0000000004Hz,0000110295c,0000000.239s, 037.3C,00002195
2016-07-22 00:40:37 r, 18.31m,0000000004Hz,0000109460c,0000000.238s, 037.3C,00002195
2016-07-22 00:50:37 r, 18.32m,0000000004Hz,0000110122c,0000000.239s, 037.3C,00002195
2016-07-22 01:00:37 r, 18.31m,0000000005Hz,0000108745c,0000000.236s, 037.0C,00002195
2016-07-22 01:10:37 r, 18.31m,0000000004Hz,0000109512c,0000000.238s, 037.0C,00002195
2016-07-22 01:20:37 r, 18.30m,0000000004Hz,0000108476c,0000000.235s, 036.7C,00002195
2016-07-22 01:30:37 r, 18.30m,0000000004Hz,0000107536c,0000000.233s, 036.7C,00002195
2016-07-22 01:40:37 r, 18.28m,0000000004Hz,0000106365c,0000000.231s, 036.4C,00002195
2016-07-22 01:50:37 r, 18.27m,0000000004Hz,0000104625c,0000000.227s, 036.4C,00002195
2016-07-22 02:00:37 r, 18.25m,0000000004Hz,0000103693c,0000000.225s, 036.0C,00002195
2016-07-22 02:10:37 r, 18.22m,0000000004Hz,0000100938c,0000000.219s, 036.0C,00002195
2016-07-22 02:20:37 r, 18.20m,0000000005Hz,0000098905c,0000000.215s, 035.7C,00002195
2016-07-22 02:30:38 r, 18.20m,0000000004Hz,0000099763c,0000000.216s, 035.4C,00002195
2016-07-22 02:40:37 r, 18.20m,0000000005Hz,0000099827c,0000000.217s, 035.4C,00002195
2016-07-22 02:50:38 r, 18.24m,0000000004Hz,0000102594c,0000000.223s, 035.1C,00002195
2016-07-22 03:00:38 r, 18.24m,0000000005Hz,0000102806c,0000000.223s, 035.1C,00002195
2016-07-22 03:10:39 r, 18.23m,0000000004Hz,0000102156c,0000000.222s, 034.8C,00002195
2016-07-22 03:20:37 r, 18.23m,0000000004Hz,0000101887c,0000000.221s, 034.8C,00002195
2016-07-22 03:30:38 r, 18.22m,0000000004Hz,0000101226c,0000000.220s, 034.8C,00002195
2016-07-22 03:40:37 r, 18.21m,0000000004Hz,0000100847c,0000000.219s, 034.4C,00002195
2016-07-22 03:50:37 r, 18.20m,0000000005Hz,0000099092c,0000000.215s, 034.4C,00002195
2016-07-22 04:00:37 r, 18.15m,0000000005Hz,0000094940c,0000000.206s, 034.4C,00002195
2016-07-22 04:10:38 r, 18.03m,0000000005Hz,0000084610c,0000000.184s, 034.4C,00002195
2016-07-22 04:20:37 r, 17.78m,0000000007Hz,0000067221c,0000000.146s, 034.1C,00002195
2016-07-22 04:30:37 r, 17.32m,0000000010Hz,0000044147c,0000000.096s, 034.1C,00002195
2016-07-22 04:40:37 r, 16.61m,0000000020Hz,0000022997c,0000000.050s, 033.8C,00002195
2016-07-22 04:50:37 r, 15.54m,0000000053Hz,0000008601c,0000000.019s, 033.8C,00002195
2016-07-22 05:00:38 r, 14.05m,0000000214Hz,0000000000c,0000000.000s, 033.5C,00002195
2016-07-22 05:10:39 r, 12.41m,0000000970Hz,0000000000c,0000000.000s, 033.1C,00002195
2016-07-22 05:20:37 r, 10.82m,0000004207Hz,0000000000c,0000000.000s, 033.1C,00002195
2016-07-22 05:30:37 r, 09.32m,0000016759Hz,0000000000c,0000000.000s, 033.1C,00002195
2016-07-22 05:40:38 r, 08.14m,0000049336Hz,0000000000c,0000000.000s, 033.1C,00002195
2016-07-22 05:50:37 r, 07.29m,0000108185Hz,0000000000c,0000000.000s, 033.1C,00002195
2016-07-22 06:00:37 r, 06.68m,0000188727Hz,0000000000c,0000000.000s, 033.1C,00002195
2016-07-22 06:10:40 r, 06.26m,0000279422Hz,0000000000c,0000000.000s, 033.1C,00002195
2016-07-22 06:20:37 r, 05.95m,0000370271Hz,0000000000c,0000000.000s, 033.5C,00002195
2016-07-22 06:30:37 r, 00.00m,0000453606Hz,0000000000c,0000000.000s, 033.5C,00002195
2016-07-22 06:40:37 r, 00.00m,0000528063Hz,0000000000c,0000000.000s, 033.8C,00002195
2016-07-22 06:50:37 r, 00.00m,0000564467Hz,0000000000c,0000000.000s, 033.8C,00002195
2016-07-22 07:00:37 r, 00.00m,0000564481Hz,0000000000c,0000000.000s, 033.8C,00002195
2016-07-22 07:10:38 r, 00.00m,0000564436Hz,0000000000c,0000000.000s, 034.1C,00002195
2016-07-22 07:20:38 r, 00.00m,0000564589Hz,0000000000c,0000000.000s, 034.4C,00002195
2016-07-22 07:30:38 r, 00.00m,0000564554Hz,0000000000c,0000000.000s, 034.4C,00002195
2016-07-22 07:40:38 r, 00.00m,0000564538Hz,0000000000c,0000000.000s, 034.8C,00002195
2016-07-22 07:50:38 r, 00.00m,0000564670Hz,0000000000c,0000000.000s, 035.1C,00002195
2016-07-22 08:00:38 r, 00.00m,0000564624Hz,0000000000c,0000000.000s, 035.4C,00002195
2016-07-22 08:10:38 r, 00.00m,0000564744Hz,0000000000c,0000000.000s, 035.7C,00002195
2016-07-22 08:20:38 r, 00.00m,0000564619Hz,0000000000c,0000000.000s, 036.4C,00002195
2016-07-22 08:30:38 r, 00.00m,0000564749Hz,0000000000c,0000000.000s, 036.7C,00002195
2016-07-22 08:40:38 r, 00.00m,0000564750Hz,0000000000c,0000000.000s, 036.7C,00002195
2016-07-22 08:50:38 r, 00.00m,0000564879Hz,0000000000c,0000000.000s, 037.0C,00002195
2016-07-22 09:00:38 r, 00.00m,0000564862Hz,0000000000c,0000000.000s, 037.3C,00002195
2016-07-22 09:10:40 r, 00.00m,0000564920Hz,0000000000c,0000000.000s, 038.0C,00002195
2016-07-22 09:20:38 r, 00.00m,0000565226Hz,0000000000c,0000000.000s, 040.9C,00002195
2016-07-22 09:30:38 r, 00.00m,0000565489Hz,0000000000c,0000000.000s, 043.5C,00002195
2016-07-22 09:40:39 r, 00.00m,0000565629Hz,0000000000c,0000000.000s, 045.4C,00002195
2016-07-22 09:50:38 r, 00.00m,0000565682Hz,0000000000c,0000000.000s, 046.7C,00002195
2016-07-22 10:00:38 r, 00.00m,0000565781Hz,0000000000c,0000000.000s, 048.0C,00002195
2016-07-22 10:10:38 r, 00.00m,0000565822Hz,0000000000c,0000000.000s, 048.9C,00002195
2016-07-22 10:20:38 r, 00.00m,0000565891Hz,0000000000c,0000000.000s, 049.9C,00002195
2016-07-22 10:30:38 r, 00.00m,0000565960Hz,0000000000c,0000000.000s, 050.6C,00002195
2016-07-22 10:40:38 r, 00.00m,0000565936Hz,0000000000c,0000000.000s, 051.5C,00002195
2016-07-22 10:50:39 r, 00.00m,0000565990Hz,0000000000c,0000000.000s, 052.5C,00002195
2016-07-22 11:00:38 r, 00.00m,0000566074Hz,0000000000c,0000000.000s, 053.1C,00002195
2016-07-22 11:10:38 r, 00.00m,0000566052Hz,0000000000c,0000000.000s, 053.8C,00002195
2016-07-22 11:20:38 r, 00.00m,0000566127Hz,0000000000c,0000000.000s, 053.8C,00002195
2016-07-22 11:30:38 r, 00.00m,0000566092Hz,0000000000c,0000000.000s, 054.4C,00002195
2016-07-22 11:40:39 r, 00.00m,0000566045Hz,0000000000c,0000000.000s, 054.7C,00002195
2016-07-22 11:50:38 r, 00.00m,0000566036Hz,0000000000c,0000000.000s, 055.1C,00002195
2016-07-22 12:00:39 r, 00.00m,0000566134Hz,0000000000c,0000000.000s, 055.4C,00002195
2016-07-22 12:10:38 r, 00.00m,0000566099Hz,0000000000c,0000000.000s, 056.0C,00002195
2016-07-22 12:20:38 r, 00.00m,0000566109Hz,0000000000c,0000000.000s, 056.4C,00002195
2016-07-22 12:30:38 r, 00.00m,0000566086Hz,0000000000c,0000000.000s, 056.7C,00002195
2016-07-22 12:40:40 r, 00.00m,0000566126Hz,0000000000c,0000000.000s, 057.0C,00002195
2016-07-22 12:50:39 r, 00.00m,0000566091Hz,0000000000c,0000000.000s, 057.3C,00002195
2016-07-22 13:00:38 r, 00.00m,0000566137Hz,0000000000c,0000000.000s, 057.6C,00002195
2016-07-22 13:10:39 r, 00.00m,0000566063Hz,0000000000c,0000000.000s, 057.6C,00002195
2016-07-22 13:20:39 r, 00.00m,0000566137Hz,0000000000c,0000000.000s, 057.6C,00002195
2016-07-22 13:30:39 r, 00.00m,0000566141Hz,0000000000c,0000000.000s, 057.3C,00002195
2016-07-22 13:40:39 r, 00.00m,0000566076Hz,0000000000c,0000000.000s, 057.3C,00002195
2016-07-22 13:50:39 r, 00.00m,0000566103Hz,0000000000c,0000000.000s, 057.3C,00002195
2016-07-22 14:00:38 r, 00.00m,0000566132Hz,0000000000c,0000000.000s, 057.6C,00002195
2016-07-22 14:10:39 r, 00.00m,0000566102Hz,0000000000c,0000000.000s, 057.3C,00002195
2016-07-22 14:20:38 r, 00.00m,0000566079Hz,0000000000c,0000000.000s, 057.6C,00002195
2016-07-22 14:30:38 r, 00.00m,0000566068Hz,0000000000c,0000000.000s, 057.6C,00002195
2016-07-22 14:40:38 r, 00.00m,0000566079Hz,0000000000c,0000000.000s, 058.0C,00002195
2016-07-22 14:50:38 r, 00.00m,0000566032Hz,0000000000c,0000000.000s, 058.0C,00002195
2016-07-22 15:00:38 r, 00.00m,0000566093Hz,0000000000c,0000000.000s, 057.0C,00002195
2016-07-22 15:10:39 r, 00.00m,0000565941Hz,0000000000c,0000000.000s, 055.1C,00002195
2016-07-22 15:20:38 r, 00.00m,0000565937Hz,0000000000c,0000000.000s, 054.7C,00002195
2016-07-22 15:30:39 r, 00.00m,0000565980Hz,0000000000c,0000000.000s, 055.1C,00002195
2016-07-22 15:40:38 r, 00.00m,0000566113Hz,0000000000c,0000000.000s, 056.0C,00002195
2016-07-22 15:50:38 r, 00.00m,0000566054Hz,0000000000c,0000000.000s, 056.7C,00002195
2016-07-22 16:00:38 r, 00.00m,0000565999Hz,0000000000c,0000000.000s, 056.7C,00002195
2016-07-22 16:10:38 r, 00.00m,0000565999Hz,0000000000c,0000000.000s, 056.4C,00002195
2016-07-22 16:20:39 r, 00.00m,0000565893Hz,0000000000c,0000000.000s, 055.7C,00002195
2016-07-22 16:30:38 r, 00.00m,0000565884Hz,0000000000c,0000000.000s, 056.0C,00002195
2016-07-22 16:40:38 r, 00.00m,0000565935Hz,0000000000c,0000000.000s, 056.7C,00002195
2016-07-22 16:50:38 r, 00.00m,0000565969Hz,0000000000c,0000000.000s, 056.7C,00002195
2016-07-22 17:00:38 r, 00.00m,0000565987Hz,0000000000c,0000000.000s, 056.4C,00002195
2016-07-22 17:10:38 r, 00.00m,0000565960Hz,0000000000c,0000000.000s, 056.0C,00002195
2016-07-22 17:20:38 r, 00.00m,0000565898Hz,0000000000c,0000000.000s, 055.7C,00002195
2016-07-22 17:30:38 r, 00.00m,0000565808Hz,0000000000c,0000000.000s, 055.4C,00002195
2016-07-22 17:40:38 r, 00.00m,0000565819Hz,0000000000c,0000000.000s, 055.1C,00002195
2016-07-22 17:50:38 r, 00.00m,0000565772Hz,0000000000c,0000000.000s, 054.7C,00002195
2016-07-22 18:00:38 r, 00.00m,0000565739Hz,0000000000c,0000000.000s, 054.4C,00002195
2016-07-22 18:10:39 r, 00.00m,0000565757Hz,0000000000c,0000000.000s, 053.8C,00002195
2016-07-22 18:20:38 r, 00.00m,0000565714Hz,0000000000c,0000000.000s, 053.1C,00002195
2016-07-22 18:30:39 r, 00.00m,0000565670Hz,0000000000c,0000000.000s, 053.1C,00002195
2016-07-22 18:40:38 r, 00.00m,0000565643Hz,0000000000c,0000000.000s, 052.5C,00002195
2016-07-22 18:50:38 r, 00.00m,0000565591Hz,0000000000c,0000000.000s, 052.2C,00002195
2016-07-22 19:00:38 r, 00.00m,0000565601Hz,0000000000c,0000000.000s, 051.2C,00002195
2016-07-22 19:10:39 r, 00.00m,0000565581Hz,0000000000c,0000000.000s, 050.9C,00002195
2016-07-22 19:20:39 r, 00.00m,0000565463Hz,0000000000c,0000000.000s, 050.6C,00002195
2016-07-22 19:30:41 r, 00.00m,0000565413Hz,0000000000c,0000000.000s, 049.6C,00002195
2016-07-22 19:40:39 r, 00.00m,0000565325Hz,0000000000c,0000000.000s, 048.6C,00002195
2016-07-22 19:50:38 r, 00.00m,0000565329Hz,0000000000c,0000000.000s, 047.7C,00002195
2016-07-22 20:00:38 r, 00.00m,0000565304Hz,0000000000c,0000000.000s, 047.0C,00002195
2016-07-22 20:10:38 r, 00.00m,0000565169Hz,0000000000c,0000000.000s, 046.0C,00002195
2016-07-22 20:20:38 r, 00.00m,0000565151Hz,0000000000c,0000000.000s, 045.4C,00002195
2016-07-22 20:30:38 r, 00.00m,0000539145Hz,0000000000c,0000000.000s, 044.1C,00002195
2016-07-22 20:40:38 r, 00.00m,0000452569Hz,0000000000c,0000000.000s, 043.5C,00002195
2016-07-22 20:50:38 r, 05.99m,0000360011Hz,0000000000c,0000000.000s, 042.5C,00002195
2016-07-22 21:00:38 r, 06.32m,0000264673Hz,0000000000c,0000000.000s, 041.9C,00002195
2016-07-22 21:10:41 r, 06.79m,0000171801Hz,0000000000c,0000000.000s, 041.2C,00002195
2016-07-22 21:20:39 r, 07.48m,0000090508Hz,0000000000c,0000000.000s, 040.9C,00002195
2016-07-22 21:30:38 r, 08.51m,0000035113Hz,0000000000c,0000000.000s, 040.6C,00002195
2016-07-22 21:40:38 r, 09.79m,0000010827Hz,0000000000c,0000000.000s, 039.9C,00002195
2016-07-22 21:50:38 r, 11.25m,0000002820Hz,0000000000c,0000000.000s, 039.6C,00002195
2016-07-22 22:00:38 r, 12.82m,0000000662Hz,0000000000c,0000000.000s, 039.3C,00002195
2016-07-22 22:10:38 r, 14.48m,0000000143Hz,0000000000c,0000000.000s, 039.0C,00002195
2016-07-22 22:20:38 r, 15.98m,0000000036Hz,0000012832c,0000000.028s, 039.0C,00002195
2016-07-22 22:30:38 r, 16.93m,0000000015Hz,0000030828c,0000000.067s, 038.6C,00002195
2016-07-22 22:40:38 r, 17.53m,0000000009Hz,0000053711c,0000000.117s, 038.3C,00002195
2016-07-22 22:50:38 r, 17.80m,0000000007Hz,0000069034c,0000000.150s, 038.0C,00002195
2016-07-22 23:00:38 r, 18.05m,0000000005Hz,0000086401c,0000000.188s, 037.7C,00002195
2016-07-22 23:10:39 r, 18.17m,0000000005Hz,0000095737c,0000000.208s, 037.7C,00002195
2016-07-22 23:20:38 r, 18.07m,0000000006Hz,0000087358c,0000000.190s, 037.3C,00002195
2016-07-22 23:30:38 r, 17.98m,0000000006Hz,0000080406c,0000000.174s, 037.3C,00002195
2016-07-22 23:40:38 r, 18.10m,0000000005Hz,0000090092c,0000000.196s, 037.0C,00002195
2016-07-22 23:50:39 r, 18.17m,0000000005Hz,0000096011c,0000000.208s, 037.0C,00002195
